EXPRESS-AM7

Last updated on Sun Apr 12 2026 00:02:53 GMT+0000 (Coordinated Universal Time)

1 40505U 15012A 26101.45724171 .00000152 00000+0 00000+0 0 9990 2 40505 0.0152 125.3650 0003017 249.9421 28.9697 1.00273185 40336
UTC large
Height (km)
Speed (km/s)
/
Latitude / Longitude
Inclination (degrees)
Orbital Period (minutes)
Azimuth
Elevation
Range (km)
Doppler Factor

Next 0 passes for location: London (51.5072 / 0.1276)

Sorry there are no passes over London.
EXPRESS-AM7